Regional Weather Roundup
Issued by NWS

Home | Current Version | Previous Version | Text Only | Print | Product List | Glossary On
Versions: 1 2 3 4 5 6 7 8 9 10 11 12 13 14 15 16 17 18 19 20 21 22 23 24 25 26 27 28 29 30 31 32 33 34 35 36 37 38 39 40 41 42 43 44 45 46 47 48 49 50
000
ASUS42 KFFC 301103
RWRGA
WEATHER ROUNDUP FOR GEORGIA
NATIONAL WEATHER SERVICE PEACHTREE CITY GA
700 AM EDT MON MAR 30 2015

NOTE: "FAIR" INDICATES FEW OR NO CLOUDS BELOW 12,000 FEET WITH NO
SIGNIFICANT WEATHER AND/OR OBSTRUCTIONS TO VISIBILITY.

* = USE WITH CAUTION. THE STATIONS MARKED WITH AN ASTERISK MAY NOT
REPORT WEATHER SUCH AS PRECIPITATION, FOG, OR THUNDER AND ARE NOT
QUALITY CONTROLLED BY NWS.

THE REMARK "TC" DENOTES TEMPERATURE READING IN DEGREES CELSIUS.

GAZ001>058-301200-
NORTH GEORGIA

CITY           SKY/WX    TMP DP  RH WIND       PRES   REMARKS
ATLANTA        LGT RAIN  54  48  80 NW17G29   30.16R
ATHENS         CLOUDY    49  32  52 NW12G32   30.20R
CHAMBLEE       RAIN      50  47  89 CALM      30.15R FOG
PEACHTREE CITY CLOUDY    57  50  77 VRB7G21   30.13R
ROME           RAIN      51  50  96 S10       30.09F FOG
WEST ATLANTA   LGT RAIN  51  48  89 CALM      30.16R FOG
GAINESVILLE    RAIN      44  42  93 CALM      30.13F FOG
CARTERSVILLE   LGT RAIN  49  47  93 VRB5      30.14S FOG


CITY           SKY/WX    TMP DP  RH WIND       PRES   REMARKS
DALTON*        CLOUDY    46  46 100 CALM      30.09R
LAWRENCEVILLE* RAIN      50  45  81 W9        30.16  FOG
MARIETTA       LGT RAIN  50  49  94 CALM      30.15S FOG
KENNESAW*      MOCLDY    48  46  93 SW5       30.15
$$

GAZ059>098-102>109-301200-
CENTRAL GEORGIA

CITY           SKY/WX    TMP DP  RH WIND       PRES   REMARKS
AUGUSTA-BUSH   PTCLDY    45  37  73 S7        30.17S
AUGUSTA-DANIEL PTCLDY    47  35  63 S7        30.16R
COLUMBUS       PTCLDY    50  44  80 S3        30.16F
MACON          CLOUDY    47  40  76 CALM      30.17S
ROBINS AFB     CLOUDY    47  40  76 S5        30.17F


CITY           SKY/WX    TMP DP  RH WIND       PRES   REMARKS
LAGRANGE*      CLOUDY    58  53  82 SW7       30.14S
SYLVANIA*      CLEAR     45  40  85 SW5       30.22R
MILLEDGEVILLE* CLOUDY    46  41  81 CALM      30.17R
$$

GAZ099>101-110>166-301200-
SOUTH GEORGIA

CITY           SKY/WX    TMP DP  RH WIND       PRES   REMARKS
SAVANNAH       PTCLDY    43  39  86 SW6       30.24S
VALDOSTA       CLEAR     44  42  93 S6        30.24F
ALMA           PTCLDY    43  39  86 SW3       30.24R
ST SIMONS      CLEAR     49  44  83 SW5       30.25R
FT STEWART     CLEAR     40  37  89 CALM      30.22S
ALBANY         MOCLDY    50  43  77 S5        30.24R
HUNTER AFB     CLEAR     46  43  86 SW6       30.21S
MOODY AFB      CLEAR     44  41  88 S6        30.23S
BRUNSWICK      CLEAR     43  43 100 CALM      30.26S


CITY           SKY/WX    TMP DP  RH WIND       PRES   REMARKS
BAINBRIDGE*    CLEAR     54  46  76 S5        30.23R
MOULTRIE*      CLEAR     46  43  87 CALM      30.25R
VIDALIA*       PTCLDY    45  41  87 S8        30.22S
WAYCROSS*      CLEAR     45  44  95 SW3       30.25R
DOUGLAS*       PTCLDY    46  43  87 SW6       30.25R
$$


USA.gov is the U.S. government's official web portal to all federal, state and local government web resources and services.